GFSMA_con_3kmhel_000.txt.gz
Helicity
69 62 58 44 67 -29 -59 -41 -9 -22 24 38 71 84 67 63 73 180 248 133 58 52 62 35 27 61 78 62 60 49 49 57 52 57 64 55 60 60 52 57 77 74 70
60 66 67 56 64 56 4 12 31 57 -20 51 4 20 39 57 78 103 138 218 238 106 70 61 26 36 64 73 62 59 55 57 53 53 58 51 51 55 60 71 75 73 62
77 80 81 79 85 93 76 97 78 40 -2 -4 20 64 64 55 51 91 120 161 174 214 116 58 45 45 54 63 82 67 59 65 57 55 61 61 53 60 69 67 76 74 62
80 71 76 93 91 95 105 130 123 132 104 115 74 57 72 56 48 43 80 155 141 262 70 86 48 47 49 68 48 51 57 64 68 61 72 67 58 55 73 65 66 68 64
73 75 74 78 74 89 96 112 112 106 100 104 103 80 151 145 87 101 98 113 153 139 150 137 82 57 56 67 70 45 67 56 57 64 72 77 63 55 62 71 53 56 55
27 65 66 51 53 69 77 98 114 119 108 107 90 72 85 104 112 122 93 127 132 146 153 149 96 94 64 65 74 76 52 32 52 58 67 82 74 58 60 72 53 45 66
36 32 45 50 39 58 76 88 99 123 142 119 90 118 100 109 117 191 145 109 119 184 162 169 166 100 128 80 77 84 69 32 37 62 77 74 80 75 66 77 72 76 89
14 11 23 36 61 74 79 98 100 96 97 109 127 130 112 155 147 164 145 154 100 136 182 164 116 83 108 143 112 92 91 70 39 58 97 83 81 79 75 87 84 89 96
-3 16 25 11 22 30 63 89 106 115 143 116 69 139 168 229 203 179 169 145 130 153 139 198 159 149 145 150 130 127 124 108 69 65 84 99 91 89 80 89 89 99 98
44 28 28 18 17 31 45 44 62 99 119 164 139 80 81 142 176 142 189 245 242 143 101 132 188 213 135 138 147 130 143 152 116 92 103 101 93 93 100 95 98 105 100
81 80 77 81 71 67 63 67 62 56 67 101 123 141 124 86 113 190 154 232 212 219 221 131 112 214 160 174 145 142 169 169 165 120 100 126 105 99 112 99 109 111 116
124 122 139 152 143 141 131 123 104 84 73 65 74 92 151 168 158 160 182 192 210 198 115 165 161 134 202 88 128 134 162 173 161 152 130 118 133 124 104 102 120 126 120
185 180 183 161 172 179 169 158 147 135 127 110 88 86 87 118 138 157 175 184 197 150 121 2 142 121 150 139 160 143 132 185 172 161 160 160 133 142 137 114 99 115 129
187 171 153 136 132 133 133 130 145 157 149 168 127 126 124 118 107 119 146 168 182 155 117 106 6 103 155 166 171 153 114 123 175 180 173 199 171 161 165 160 149 121 130
158 145 135 123 121 123 121 124 164 165 152 165 157 117 132 143 133 134 130 131 151 142 128 106 76 -27 31 185 159 157 161 77 114 167 203 205 212 192 184 199 180 173 175
123 119 113 109 106 103 103 114 139 135 124 144 137 114 115 127 138 135 128 122 134 134 100 117 106 53 -113 43 131 126 192 179 117 119 157 211 210 222 215 232 253 288 294
100 102 93 92 90 90 93 102 95 93 101 110 113 115 106 101 131 123 113 113 136 147 117 72 85 79 51 -6 -57 39 249 79 125 101 109 149 210 243 263 325 378 417 437
83 77 82 86 82 82 81 84 84 90 95 96 98 104 111 137 115 117 113 93 96 103 118 61 67 53 16 16 41 -40 50 116 150 134 136 139 205 265 349 510 570 566 531
82 86 88 88 85 89 90 93 94 93 96 102 102 100 103 103 130 154 125 104 92 84 97 79 49 41 23 11 30 35 -18 7 137 149 171 205 272 285 443 578 640 639 607
92 89 89 87 88 90 99 94 91 97 115 140 133 126 111 114 138 135 134 121 105 88 93 99 69 29 42 -6 32 24 48 59 167 230 128 242 342 459 488 587 621 601 550
94 85 81 82 88 106 113 105 119 121 -45 -77 -7 41 46 25 -27 64 165 132 131 132 104 105 91 79 55 55 55 78 86 160 160 188 284 379 379 504 623 626 600 556 507
79 78 79 86 96 116 104 118 -21 -119 -47 -65 -79 58 83 51 40 14 -16 -2 139 202 136 121 102 95 44 63 19 89 141 189 171 310 335 507 515 487 531 595 602 550 468
70 73 82 99 95 41 -54 -94 -67 89 68 50 78 83 70 88 68 71 54 8 1 92 135 171 159 99 84 60 60 69 119 141 198 222 326 435 486 559 688 745 631 440 412
84 84 91 82 -100 -109 -74 -42 -28 57 57 87 100 91 82 77 78 76 79 69 -5 86 112 131 128 160 107 73 71 53 95 189 235 182 357 304 473 531 629 674 504 379 360
89 86 72 -105 -102 -72 -33 -18 -31 69 92 99 106 110 102 95 75 63 65 22 -9 -20 111 72 57 105 205 168 282 109 165 228 267 247 340 377 331 506 513 542 480 287 368
90 72 -90 -98 -75 -53 26 9 34 98 113 114 87 89 77 97 67 67 60 36 21 -27 80 111 141 83 120 120 201 222 167 176 254 259 256 424 427 541 448 564 457 498 418

GFSMA_con_3kmhel_003.txt.gz
Helicity
64 55 67 58 60 81 65 42 40 -29 41 39 -129 49 54 118 50 75 75 76 92 132 143 74 63 74 41 103 117 97 68 52 49 52 76 83 83 78 82 72 76 64 51
78 85 72 74 89 104 93 79 90 87 55 54 -34 7 35 48 39 27 44 83 95 123 145 129 50 62 45 54 122 118 87 68 51 50 72 68 73 80 88 72 68 64 57
117 96 88 77 90 109 134 138 114 85 69 42 1 13 43 25 34 11 81 110 79 84 87 112 112 97 104 53 78 118 103 75 69 61 61 79 71 79 85 81 85 77 74
105 107 99 90 89 97 94 95 113 115 97 80 69 22 42 20 39 66 73 101 61 83 93 109 126 89 98 136 62 73 75 82 78 78 69 85 78 82 84 93 89 82 80
123 118 112 106 93 114 113 97 93 107 129 121 81 36 59 33 39 63 84 108 93 95 94 118 95 156 117 159 97 60 59 62 80 94 82 84 83 83 94 99 95 91 80
102 74 67 74 77 100 125 127 122 113 111 125 108 86 70 84 73 60 82 103 131 96 102 115 120 161 157 97 100 63 66 43 47 53 86 91 92 87 92 104 95 94 77
82 62 95 93 96 108 122 107 127 129 127 122 99 127 126 67 78 69 77 87 92 85 92 108 139 143 146 144 114 97 76 53 50 55 77 86 97 97 92 103 103 90 81
78 51 80 86 112 120 119 126 147 143 138 121 103 97 81 150 120 172 126 79 82 97 86 94 108 113 159 232 295 167 91 73 79 79 64 102 115 112 103 99 110 95 72
65 68 68 81 88 82 91 124 125 129 167 179 145 109 52 112 197 191 160 172 151 115 101 121 126 101 125 149 270 189 124 131 83 97 92 83 123 135 104 93 100 109 82
129 78 62 69 75 66 63 75 82 133 135 149 146 142 151 118 53 19 138 181 158 130 147 126 158 115 120 153 132 246 136 203 146 117 111 91 123 134 140 102 101 112 114
114 93 90 98 115 92 87 98 96 100 93 105 118 123 135 149 148 83 16 49 114 121 126 146 190 130 131 121 149 167 189 190 207 175 150 127 119 150 141 129 113 107 119
230 167 181 179 181 136 98 98 106 107 109 103 99 93 117 125 131 145 107 79 76 122 165 137 76 143 189 169 166 111 142 181 207 199 198 174 158 144 148 122 115 110 120
198 223 251 233 195 160 152 138 140 139 129 123 116 119 105 100 110 127 141 115 109 91 119 132 144 124 112 157 145 110 116 173 300 196 212 220 190 176 159 142 133 121 127
166 160 148 126 112 113 112 119 137 139 119 126 111 119 128 132 121 125 144 149 133 116 76 71 133 106 114 185 144 118 100 106 193 230 223 244 252 223 210 179 149 144 146
153 110 122 126 104 99 102 104 131 126 131 139 143 145 145 136 131 126 127 171 195 164 164 143 158 116 99 91 98 145 151 88 108 111 228 269 271 271 245 242 214 166 145
146 134 134 112 116 114 107 107 137 118 123 136 137 127 123 119 111 112 121 117 174 214 178 194 172 212 130 83 59 38 66 136 90 -25 145 182 228 279 276 261 257 245 213
145 117 104 103 112 110 103 113 108 100 101 101 103 103 98 90 102 96 102 116 139 180 156 119 156 140 191 106 20 78 135 49 156 150 10 85 141 209 285 312 310 312 304
104 78 71 82 96 97 97 94 98 99 102 109 113 115 117 122 96 89 79 100 135 151 186 126 98 127 144 123 104 -18 17 90 54 124 175 -11 117 161 245 310 352 374 307
76 65 80 100 102 101 98 101 99 107 116 121 124 128 128 118 97 88 71 91 114 135 153 165 109 110 101 95 96 27 -17 32 28 -38 49 237 173 153 170 263 340 372 460
76 73 93 102 103 96 96 97 100 107 115 130 157 185 185 167 131 112 125 99 87 108 135 143 129 107 87 73 97 73 32 51 73 98 128 12 91 173 159 174 287 338 510
92 82 94 92 88 102 111 112 127 139 139 168 187 171 127 84 12 24 114 132 183 145 109 113 112 114 80 54 62 80 74 22 104 87 76 160 93 60 42 144 196 321 534
92 98 93 86 95 115 126 136 142 146 153 -32 -45 -17 32 57 56 53 34 41 61 139 141 197 83 101 85 73 64 58 33 71 83 107 142 164 392 155 157 302 252 312 503
102 86 86 102 108 99 101 118 57 -94 -92 -80 -71 72 97 86 71 80 64 71 70 46 -9 15 -62 178 120 91 66 33 62 104 84 85 153 145 335 315 208 427 378 469 605
86 89 107 107 95 101 38 -85 -71 -94 -41 39 82 95 96 99 99 92 94 94 89 90 88 86 -50 -81 167 145 139 130 80 119 189 135 191 153 290 270 330 413 466 455 702
85 109 113 95 90 -64 -92 -60 -56 48 49 81 97 104 102 103 83 55 96 111 94 108 93 72 70 -24 -69 86 114 148 102 122 156 160 224 205 243 369 377 340 409 512 559
113 133 94 86 -103 -109 -22 33 17 126 117 143 144 128 99 113 75 62 89 92 101 117 104 103 97 72 -20 52 28 115 169 112 166 159 168 251 261 324 315 379 345 453 562

GFSMA_con_3kmhel_006.txt.gz
Helicity
103 80 97 79 87 79 73 73 73 77 76 65 75 32 -120 98 79 120 157 86 71 50 56 50 60 90 124 138 128 138 124 87 79 66 77 95 101 92 79 90 92 85 76
122 140 127 125 100 106 99 92 91 85 85 94 83 91 47 19 32 8 66 73 49 37 52 43 38 64 72 108 124 125 147 117 84 66 71 95 115 106 90 94 96 94 75
160 166 173 170 165 105 95 87 81 92 93 89 72 61 40 68 76 40 11 104 164 21 33 66 69 87 90 54 123 138 134 147 109 75 63 76 106 109 103 110 103 88 76
160 146 158 166 134 98 103 105 104 101 94 101 98 57 34 47 40 38 56 90 99 79 66 48 70 44 33 76 85 64 134 161 147 91 67 61 79 102 107 106 103 69 67
164 155 170 169 124 108 98 93 110 105 106 106 110 96 56 29 38 45 41 52 83 108 94 66 44 56 64 71 76 94 72 94 142 131 101 83 88 97 109 109 85 80 81
183 166 164 133 92 86 100 103 78 107 112 95 86 78 78 96 99 84 57 66 83 71 90 94 100 92 56 65 41 70 78 60 72 105 112 95 98 110 107 90 75 87 88
172 153 148 195 140 124 145 89 89 95 94 122 121 49 37 120 122 125 130 92 77 65 108 119 114 86 100 72 59 47 75 74 41 88 105 103 89 113 117 107 93 91 89
202 192 139 142 133 157 125 102 85 95 83 93 114 94 -13 -11 142 174 182 201 119 54 67 93 109 100 102 130 113 63 52 102 81 57 112 107 91 112 128 115 112 105 93
179 153 158 162 142 133 112 103 83 69 77 87 95 95 69 17 -29 82 92 138 135 136 129 56 73 103 109 105 79 95 90 73 53 99 111 166 116 108 123 126 120 122 117
168 162 170 162 188 215 183 132 100 101 90 82 89 83 99 102 34 -71 9 65 93 101 75 78 83 89 83 131 106 94 77 104 135 107 169 97 157 125 123 129 120 132 133
325 341 299 310 204 239 269 193 164 124 103 95 91 85 85 75 78 58 -68 -58 -2 49 80 90 115 73 -20 65 89 112 109 85 116 157 138 213 142 151 130 125 130 142 132
374 431 400 372 322 279 253 233 184 156 143 136 132 113 94 88 77 75 53 9 -14 -16 16 34 48 72 41 -11 -20 90 126 110 91 91 128 174 176 149 164 139 135 148 142
423 370 352 375 232 212 173 146 142 158 165 158 133 119 106 98 92 84 69 44 22 10 8 33 43 25 18 13 29 -13 70 43 27 50 184 160 201 179 182 155 162 159 161
342 322 210 248 179 173 141 121 129 143 142 144 116 110 105 104 101 98 90 69 48 37 34 17 25 19 62 77 85 -9 -82 84 87 20 67 99 125 221 240 216 185 176 182
265 376 377 250 140 116 122 128 157 162 154 140 128 119 105 102 101 101 93 98 86 37 28 40 50 66 71 84 143 144 42 -3 18 20 -14 63 153 74 242 277 248 214 185
358 238 262 131 130 122 118 129 165 165 164 162 145 127 122 120 111 109 109 105 117 124 71 87 93 93 99 87 90 74 89 91 81 92 66 28 65 149 210 310 311 289 241
271 168 124 128 99 102 112 131 147 151 150 141 133 122 114 106 120 111 105 101 105 117 135 76 109 128 92 30 89 88 82 97 51 78 -2 8 69 58 156 177 337 350 316
125 133 99 89 95 109 122 136 145 139 138 132 122 118 108 108 101 97 100 90 83 62 73 45 33 58 83 89 58 41 81 105 67 33 55 -104 -72 36 163 152 271 416 369
142 104 106 113 119 132 136 138 129 125 124 123 124 121 121 119 116 111 96 91 85 75 66 62 -0 12 54 96 92 53 51 67 10 -73 5 5 -56 -6 -17 41 -18 281 419
106 122 128 131 137 134 125 121 118 126 134 145 159 161 168 177 182 168 131 100 77 72 67 89 50 15 38 42 89 64 43 27 67 45 29 35 56 23 12 7 72 140 264
136 127 134 135 144 143 136 134 167 179 175 166 175 187 175 150 113 109 110 52 37 8 1 -3 44 54 73 90 100 92 71 35 73 50 -31 3 62 56 63 90 86 239 139
144 149 152 146 133 137 157 155 152 151 151 153 132 112 87 -49 -55 -40 -37 -39 -22 -10 -51 29 10 21 62 132 109 111 85 74 20 48 15 34 11 44 94 79 24 80 111
155 159 148 137 142 159 160 157 137 118 82 -81 -90 -60 -31 107 83 76 48 7 18 23 48 88 6 -113 7 130 189 143 96 66 24 41 59 5 17 70 109 95 187 57 37
162 144 139 152 172 167 106 75 65 -59 -92 -9 82 96 101 117 122 107 95 98 103 103 101 125 107 101 24 5 51 110 69 138 71 132 182 65 47 80 131 183 189 163 11
130 133 178 167 121 110 84 -47 -43 -38 41 119 161 174 165 153 132 77 91 119 147 148 103 67 78 91 73 76 -0 63 -27 107 78 81 183 138 70 88 111 182 260 216 237
140 173 120 129 100 -41 -78 -22 16 84 21 131 70 112 82 100 94 100 102 111 113 112 122 120 123 102 85 98 92 88 38 -57 122 48 97 139 127 93 122 155 221 228 313

GFSMA_con_3kmhel_009.txt.gz
Helicity
144 149 130 131 135 107 105 90 74 67 66 55 59 71 64 68 12 8 103 148 105 36 22 57 58 43 32 80 109 118 134 130 124 124 133 122 99 110 114 121 113 108 100
179 157 146 135 167 162 152 133 116 98 69 63 65 53 51 56 36 70 22 61 64 159 68 38 36 64 62 40 77 98 107 127 122 123 131 140 128 121 127 127 125 116 103
194 216 203 219 173 150 136 133 126 116 109 86 71 70 46 27 35 22 36 64 67 76 76 69 84 57 69 82 45 60 62 87 119 121 138 147 142 131 137 137 129 126 113
179 214 220 213 193 204 172 158 150 144 118 102 87 82 81 73 51 44 28 32 71 84 78 66 121 114 45 56 91 59 54 99 101 113 107 125 134 127 130 147 133 134 121
187 227 232 189 174 167 165 151 130 94 88 91 93 93 89 64 57 60 62 63 55 47 103 87 42 35 33 65 43 67 72 44 83 115 117 105 112 120 128 131 137 118 92
171 204 227 184 158 155 161 125 92 67 56 58 57 77 79 68 100 89 59 80 104 85 60 83 112 87 42 39 46 51 37 50 55 100 122 111 105 105 118 122 126 118 94
190 168 189 214 191 189 156 110 93 71 75 84 93 71 19 19 53 103 83 132 113 135 100 63 95 135 117 32 38 40 52 61 84 96 110 151 145 115 114 116 118 117 98
274 253 203 215 249 248 194 181 142 115 80 78 48 28 5 11 -36 31 59 81 119 110 160 122 48 57 53 112 94 29 25 55 51 59 67 111 151 143 123 131 108 107 117
297 280 248 225 227 236 257 226 164 114 109 104 71 50 32 5 -20 -42 -17 14 34 46 81 133 89 -14 11 76 90 82 87 63 60 74 59 61 77 133 123 126 116 107 124
297 294 242 249 266 296 359 335 298 228 151 126 85 84 90 65 -3 -52 -55 -46 -17 -2 7 57 93 78 29 -20 7 49 65 70 52 37 64 46 67 120 146 132 124 111 117
285 268 321 410 431 362 357 295 229 265 163 111 106 91 78 66 50 19 -52 -50 -47 -49 5 19 21 2 10 -31 2 1 15 103 58 47 28 68 41 51 111 150 130 126 105
486 528 547 488 415 357 352 374 235 302 240 134 101 121 115 102 75 48 15 -9 -29 -48 -35 -10 11 19 35 29 -10 -78 -85 -80 87 51 43 43 85 59 39 166 153 110 132
526 549 468 440 375 322 404 356 406 333 149 109 122 132 142 134 127 93 57 10 -7 -22 -38 -15 -4 22 53 80 49 39 -32 -21 -109 23 8 24 41 49 48 157 194 196 143
643 663 749 554 480 505 524 324 152 139 122 132 130 149 146 134 116 101 78 39 -8 -15 -12 -8 -24 22 72 69 55 89 90 49 -31 -1 31 4 11 67 53 83 215 304 101
773 773 794 560 570 315 117 110 128 126 121 123 143 163 157 135 128 113 95 86 53 -25 -28 -33 -28 -9 37 49 47 14 -9 30 66 115 32 -3 29 51 80 5 78 352 293
777 804 498 261 121 116 97 100 121 115 128 150 147 157 147 129 118 118 106 97 94 64 -35 -2 -3 -7 19 49 58 45 -1 -19 5 32 44 15 -28 11 -34 -13 40 98 438
258 150 89 67 90 111 90 113 127 126 136 134 146 134 127 120 126 112 105 110 111 98 53 -4 -7 -3 10 10 28 26 31 31 18 -26 3 -54 56 10 -20 -24 -94 69 126
184 125 104 109 100 108 121 126 123 125 123 121 117 130 110 99 96 94 97 90 89 82 84 21 20 8 7 18 17 51 72 48 34 21 -13 -53 -44 24 17 -54 -64 -127 -4
157 82 65 87 105 115 121 124 122 124 125 124 118 123 109 108 97 83 66 68 75 72 75 54 23 30 37 39 36 51 50 60 95 22 -12 -10 -43 -50 -48 -15 -36 13 -17
114 107 100 109 119 119 118 120 114 119 134 145 153 150 136 124 113 99 82 69 61 68 65 49 15 8 -9 12 48 47 70 80 72 55 27 14 8 -22 -38 -32 -62 -45 19
114 116 120 123 128 128 118 112 135 135 138 127 113 106 104 94 60 77 107 85 87 86 77 63 27 9 10 -2 17 50 61 86 86 54 62 77 67 38 -17 -28 -11 -49 33
120 122 121 134 127 121 127 196 184 129 111 115 107 96 99 82 94 3 -46 -47 -49 88 79 78 47 26 2 7 44 38 58 36 50 81 62 72 73 56 50 22 22 27 29
129 130 121 112 118 153 150 102 64 98 133 158 148 -73 -78 73 3 44 -6 -26 -36 -13 -7 -58 -74 -30 6 16 15 13 58 96 58 67 52 52 58 45 47 62 52 87 113
132 109 113 125 134 107 71 66 85 141 42 -34 44 50 18 62 87 87 87 81 67 69 91 119 9 7 44 89 78 46 52 60 51 42 70 33 84 66 56 -6 35 121 162
104 117 120 110 97 100 61 65 -49 -80 17 61 74 80 -11 92 29 31 83 115 125 144 107 72 77 65 61 69 104 125 91 99 52 84 73 88 61 87 84 47 -5 87 155
115 109 109 122 90 96 70 -63 -23 51 35 87 73 78 57 69 58 70 86 101 102 97 153 121 130 106 83 89 88 133 128 106 113 137 78 99 92 76 30 51 45 44 71

GFSMA_con_3kmhel_015.txt.gz
Helicity
106 108 109 114 105 113 105 106 102 103 98 96 93 80 80 76 71 60 59 68 46 57 93 102 109 103 92 89 87 81 57 54 45 52 67 81 96 103 107 110 122 127 119
122 125 130 136 138 121 109 100 103 108 106 103 97 96 94 80 80 89 82 83 77 68 97 91 95 97 99 95 64 79 71 71 62 56 71 84 93 105 119 120 129 137 133
139 136 143 145 130 120 115 116 112 110 114 110 116 110 87 85 84 73 66 53 57 88 92 103 101 130 123 106 83 98 87 67 71 51 63 99 111 111 130 138 135 142 145
140 155 160 153 147 139 137 126 114 106 98 98 95 88 77 52 45 47 47 24 16 26 92 147 148 127 152 159 129 124 100 88 82 47 66 92 127 128 130 148 151 148 151
141 152 149 141 146 149 146 144 134 126 112 110 102 91 85 78 68 59 63 71 72 41 40 45 156 156 136 98 115 141 118 142 143 103 65 85 112 131 142 145 147 146 149
178 173 161 161 176 172 164 173 147 136 133 114 112 101 77 55 59 62 62 61 108 98 88 68 48 52 143 142 145 145 111 165 178 172 99 39 96 114 128 134 143 143 147
208 234 226 212 226 221 201 198 196 169 156 151 154 124 99 57 48 73 61 53 73 90 105 104 72 58 59 153 174 189 162 120 231 179 134 117 66 82 85 120 128 124 146
248 288 302 289 300 307 268 276 309 295 234 226 203 170 107 117 90 71 35 5 11 50 72 89 99 90 77 75 108 181 145 145 123 205 216 260 137 145 81 28 117 142 126
304 338 355 373 387 418 396 387 392 384 340 326 315 282 220 178 117 55 23 -11 -29 2 24 24 58 84 86 92 116 129 131 97 101 125 159 323 274 209 90 100 111 146 154
328 347 367 416 439 489 475 468 488 498 521 501 501 449 450 376 216 111 61 29 -13 1 16 14 18 46 58 67 104 136 126 62 24 15 164 364 256 183 100 27 66 125 136
292 306 337 392 477 513 490 519 606 730 713 732 664 629 486 460 317 204 90 24 -8 -30 -10 4 2 26 55 76 104 109 146 120 78 -42 2 170 355 318 238 97 84 81 108
230 262 380 515 575 682 794 783 855 816 715 758 767 545 574 536 427 270 161 77 36 -57 -46 -22 -3 9 43 67 82 165 160 178 140 57 -152 -79 187 308 327 183 114 112 105
233 314 478 710 886 871 905 922 961 626 763 777 500 523 468 284 221 231 242 152 44 -20 -53 -25 -10 7 15 44 76 140 154 169 216 147 -98 -296 -61 163 385 268 249 210 157
364 528 736 846 821 782 885 784 540 556 320 201 155 143 157 170 209 222 221 178 71 42 13 -25 -6 24 24 45 41 114 111 213 298 312 207 -83 -331 -266 -64 200 193 149 180
443 554 597 627 620 645 561 368 206 165 36 63 87 127 170 192 180 185 198 200 182 62 18 -5 -7 21 27 33 44 61 127 131 202 252 284 219 148 -28 -127 -49 126 128 126
396 403 421 403 384 322 95 -19 -22 -12 11 94 137 140 146 149 144 154 155 161 173 162 78 95 41 24 26 23 30 28 55 124 117 133 150 184 234 134 133 23 -16 49 71
273 260 232 196 69 -141 -28 40 77 88 109 118 121 120 120 117 132 137 142 147 155 156 134 78 88 60 43 29 17 28 27 38 90 104 98 101 143 159 158 139 126 44 66
216 157 147 106 80 67 93 106 105 110 122 125 112 115 115 112 122 133 148 151 154 140 148 89 72 67 51 38 15 11 21 14 20 88 163 136 111 101 122 125 102 97 56
233 160 128 130 121 126 121 119 129 129 116 117 122 126 121 120 117 118 118 123 131 129 136 123 86 87 73 65 38 26 23 28 26 49 71 97 108 89 100 89 75 69 59
237 184 125 112 117 114 116 114 109 115 125 124 122 117 115 113 107 104 107 109 112 121 113 114 87 60 49 34 48 40 22 27 29 42 43 59 85 106 101 121 98 84 66
113 106 101 107 110 101 96 123 129 129 126 122 111 100 92 78 49 75 113 105 102 113 110 92 72 54 44 33 43 43 48 38 32 52 58 66 70 81 108 116 119 79 57
-42 70 119 114 104 102 93 89 97 119 115 109 104 89 97 70 77 54 64 70 86 129 129 133 118 89 55 65 54 46 47 54 36 72 66 79 87 111 118 146 125 83 62
107 127 117 108 100 96 82 87 88 114 124 115 108 107 95 98 58 85 54 27 43 44 49 91 119 128 98 111 85 82 67 62 54 71 70 83 57 111 148 157 137 90 90
120 109 102 100 100 90 82 76 69 105 118 111 109 105 36 38 72 58 66 81 95 109 111 147 168 140 130 128 122 108 91 94 89 85 91 51 46 59 146 197 203 153 101
109 101 90 96 95 82 60 58 71 101 101 97 65 54 63 61 52 18 63 86 88 94 85 52 76 99 93 87 107 138 115 116 90 94 112 91 80 60 45 130 176 138 110
93 99 104 97 76 81 60 57 77 97 92 12 13 28 29 52 57 63 79 104 81 90 109 87 100 81 64 86 59 117 133 147 122 107 110 113 102 106 49 24 111 145 148

GFSMA_con_3kmhel_021.txt.gz
Helicity
86 90 92 93 90 88 86 90 84 75 64 58 59 61 59 65 76 80 79 89 81 91 99 123 139 136 126 141 126 123 118 83 57 55 53 34 48 50 45 37 43 49 63
78 83 86 93 103 108 105 108 106 96 84 74 69 68 60 51 62 77 96 103 103 120 119 150 168 173 162 138 129 137 124 101 87 74 60 57 57 57 54 38 58 69 82
83 79 79 80 82 102 113 123 121 118 108 101 88 88 81 69 64 60 61 86 71 94 121 142 164 166 187 185 164 124 122 140 94 84 62 62 57 51 42 55 66 77 97
83 96 100 92 86 98 105 108 112 112 109 108 103 95 92 91 88 76 61 51 52 68 65 88 115 143 160 178 196 184 169 181 174 134 86 60 59 70 58 55 67 81 99
94 126 135 128 120 120 128 132 132 131 121 120 118 117 113 101 92 84 64 60 64 45 35 54 73 95 140 164 178 184 174 162 170 197 212 134 117 103 74 81 73 62 92
87 137 162 162 183 185 177 186 181 176 160 136 140 140 139 131 125 116 103 108 98 67 40 33 53 53 79 118 135 169 192 200 162 182 188 213 176 175 118 83 103 66 89
94 138 154 154 184 220 222 227 223 206 208 202 225 166 154 142 138 134 143 147 145 137 106 72 64 49 42 66 91 137 163 195 206 167 132 157 188 162 158 185 122 102 83
113 146 160 161 155 186 203 235 273 288 272 272 260 202 189 135 143 151 147 190 172 166 137 125 82 57 37 46 91 130 150 165 162 166 166 143 125 168 150 155 156 142 28
91 105 114 126 138 169 202 219 251 292 314 286 288 293 236 199 170 164 126 163 185 190 187 137 96 58 39 32 46 87 130 155 167 184 175 157 158 140 194 168 154 144 157
77 107 118 108 113 135 153 174 204 240 253 301 320 341 370 344 265 194 228 193 245 226 204 172 90 47 27 8 31 48 67 111 147 165 169 166 147 132 120 180 187 157 167
74 99 109 109 111 127 140 157 178 225 243 290 317 351 405 414 424 335 212 241 343 338 212 157 93 60 22 30 19 27 49 109 127 137 154 160 170 128 81 121 180 184 149
67 98 119 129 160 180 196 219 267 296 305 338 423 482 559 505 449 502 394 357 347 288 169 92 -1 -31 28 53 48 44 52 95 120 134 173 180 177 186 157 76 131 181 199
94 117 147 179 191 221 253 277 316 346 364 405 427 512 597 627 638 564 507 362 273 214 107 139 115 15 -8 -26 -3 42 86 111 116 125 153 158 190 208 262 225 160 131 190
118 163 215 228 248 263 276 270 253 238 270 284 316 330 306 279 241 198 177 209 193 168 146 111 93 73 31 -11 35 35 91 111 105 114 127 162 195 208 241 250 207 145 112
117 167 222 216 184 173 145 127 106 104 97 117 155 92 32 35 25 27 59 65 53 97 99 88 89 73 70 79 62 39 38 75 92 108 126 144 159 183 201 231 235 191 156
183 228 268 239 181 138 121 67 36 16 0 -24 -67 -140 -195 -141 -46 -18 -8 4 21 41 57 74 80 87 71 74 82 56 34 45 60 90 103 120 132 172 208 225 235 233 199
178 204 206 249 235 222 141 109 102 66 42 37 20 13 10 8 22 36 57 76 86 101 107 81 96 102 102 93 88 88 80 67 63 64 86 101 134 160 187 210 232 220 218
278 284 263 178 133 56 35 80 75 69 63 56 53 54 51 67 70 84 93 90 105 111 123 100 106 121 101 85 90 83 84 78 75 50 62 69 89 119 140 158 194 192 184
233 179 107 56 42 49 71 77 89 84 71 62 58 60 64 76 79 84 82 92 98 105 115 128 116 111 107 98 82 78 75 63 70 46 46 63 77 94 124 139 155 191 156
74 83 75 57 48 56 73 79 70 53 45 48 55 58 65 68 66 69 77 82 89 99 102 114 112 100 105 104 110 93 84 73 59 70 64 75 100 102 115 138 155 178 190
88 86 89 82 87 79 82 64 53 53 55 56 64 70 76 75 63 64 87 80 79 90 101 116 112 97 95 96 87 70 74 77 83 88 89 88 100 104 113 96 122 156 161
97 106 105 98 84 80 93 86 80 69 60 59 54 49 50 44 42 49 56 62 80 100 103 109 99 92 65 73 78 87 86 79 65 73 63 75 99 105 95 107 123 157 184
117 103 94 88 79 82 76 64 60 60 61 56 46 41 46 54 49 58 65 66 54 44 69 77 78 75 49 56 59 71 78 89 71 64 76 78 94 93 100 108 144 166 185
95 85 78 80 79 76 69 64 59 52 57 41 31 33 36 36 52 52 47 49 40 52 61 100 100 77 64 44 53 57 56 65 75 71 70 68 75 72 77 84 80 129 176
74 71 74 79 76 68 66 57 54 54 43 26 26 30 37 47 24 20 19 -37 37 53 71 74 69 48 40 43 46 70 87 76 83 71 68 78 64 65 72 83 96 94 107
76 88 86 79 67 67 51 52 55 50 32 27 21 22 30 25 13 -36 -4 56 48 53 47 42 38 44 52 53 8 82 82 70 69 64 51 65 52 60 60 41 74 89 107

GFSMA_con_3kmhel_024.txt.gz
Helicity
39 42 50 48 54 55 51 53 54 57 61 57 60 61 70 76 88 91 103 120 99 96 107 112 116 124 130 136 144 144 134 125 106 99 74 56 38 35 46 45 45 42 28
30 28 31 37 46 59 61 66 66 70 72 74 59 56 59 70 79 90 88 106 115 120 113 128 134 136 139 140 156 144 119 135 136 115 114 96 80 49 53 61 56 51 45
28 30 29 33 42 62 63 62 66 74 75 85 83 90 74 70 77 76 76 89 92 106 106 112 122 141 150 147 146 161 173 171 149 128 130 106 89 97 72 85 79 55 53
35 39 33 37 50 72 74 67 65 69 70 77 87 91 88 85 86 77 70 82 87 81 84 101 102 119 141 155 145 131 138 140 152 206 195 135 139 93 86 66 49 49 52
53 55 53 52 66 89 103 93 82 85 79 83 81 87 98 103 101 91 79 85 87 105 87 123 110 113 117 126 139 142 136 146 137 156 181 240 248 199 145 84 92 62 61
72 71 77 68 72 90 98 111 111 119 129 116 120 125 119 119 121 121 103 98 89 87 99 125 74 71 87 103 114 131 144 171 188 167 143 174 214 228 222 202 148 89 102
78 78 98 99 105 126 105 90 100 105 125 141 144 163 151 152 158 156 140 129 119 119 89 124 121 137 61 54 70 106 123 135 138 117 133 129 155 172 183 204 201 157 153
68 83 97 85 85 108 123 125 119 138 142 146 175 165 169 178 173 134 131 163 132 131 127 123 152 160 143 103 94 69 97 127 132 135 111 130 138 138 146 160 192 203 158
57 85 89 90 104 127 130 116 119 117 144 145 167 238 212 241 147 144 238 154 139 146 153 140 166 148 133 108 105 25 59 88 104 129 131 108 107 117 133 125 137 168 198
72 67 51 69 82 98 108 117 130 135 149 162 180 225 224 190 215 263 278 228 196 200 174 203 184 139 130 97 86 112 91 64 65 86 99 123 118 103 110 112 109 130 157
78 66 70 65 76 112 128 135 132 148 167 179 199 233 263 253 205 279 279 302 222 245 230 253 252 183 164 104 65 38 42 54 74 74 64 100 118 124 99 123 93 95 126
71 65 96 83 107 138 145 148 187 230 240 296 329 347 414 445 487 387 298 236 267 218 210 272 254 187 179 118 73 159 79 59 76 73 77 95 102 120 138 125 138 89 103
59 64 99 90 147 197 226 288 270 281 291 273 283 315 311 314 306 318 345 390 456 544 548 479 283 186 128 121 119 143 97 92 99 87 89 95 100 117 145 150 152 156 139
54 72 91 129 161 174 165 173 176 168 158 174 200 184 173 165 157 165 193 219 283 267 266 186 119 106 97 116 159 199 93 53 62 72 87 95 108 130 144 152 145 150 146
44 80 115 145 215 268 196 156 120 106 77 52 21 18 50 45 38 61 82 70 110 167 184 151 148 101 107 79 92 91 85 83 39 44 75 104 130 137 148 148 149 156 159
102 161 248 231 293 269 202 141 131 122 69 45 33 19 6 -2 -19 -22 -8 1 2 18 73 74 83 86 95 113 109 85 69 77 75 57 75 94 116 125 121 150 178 191 189
243 273 268 237 157 97 108 95 95 91 89 74 57 45 47 43 33 25 4 4 7 25 23 49 62 67 71 67 75 81 74 62 65 24 17 84 104 112 130 149 162 176 186
157 160 142 100 43 24 10 10 32 45 41 53 56 59 54 59 58 51 49 42 50 53 59 42 55 74 71 72 73 68 68 78 86 86 61 32 90 108 128 134 132 133 146
66 60 52 72 86 73 69 70 73 81 80 72 61 57 51 55 53 58 61 70 80 81 81 82 65 71 74 74 77 78 81 78 77 79 92 95 86 90 98 99 102 110 119
79 95 81 85 92 95 95 102 89 75 64 59 59 57 60 62 60 61 65 70 69 75 83 98 97 81 81 73 80 82 76 72 74 75 71 74 106 97 106 104 97 98 114
101 92 87 100 91 83 104 112 73 64 60 57 58 64 67 79 90 84 94 87 87 90 97 115 113 86 88 100 93 77 81 75 86 102 94 116 120 97 109 68 57 73 75
83 93 93 93 76 83 173 101 76 70 63 63 68 66 61 42 38 51 60 66 77 96 110 125 111 98 73 79 87 95 89 78 67 76 71 69 90 99 110 127 143 123 109
99 88 80 83 79 78 166 99 83 72 70 62 59 49 42 47 62 60 59 73 71 63 78 66 67 66 60 69 73 78 82 82 66 62 77 81 87 82 95 111 116 119 114
82 81 83 88 90 96 133 93 78 62 69 50 41 31 37 35 40 56 49 48 47 48 59 88 83 65 62 77 71 72 68 69 70 67 83 78 95 79 83 93 91 91 80
83 89 98 96 89 88 111 80 65 61 53 45 37 30 16 12 16 34 35 34 32 33 36 58 57 48 39 32 33 65 84 83 74 60 62 78 89 89 82 79 88 62 68
85 109 95 82 89 76 93 82 80 72 57 53 40 19 12 8 25 22 25 26 10 -26 13 15 9 28 49 39 38 54 58 60 51 49 45 62 70 82 73 54 56 74 66

GFSMA_con_3kmhel_027.txt.gz
Helicity
60 45 50 36 44 43 44 52 60 62 74 61 58 60 56 60 65 92 125 147 110 91 95 102 98 101 107 112 114 112 117 117 114 98 104 76 69 45 44 42 49 53 33
53 36 34 36 29 31 39 54 57 62 67 75 80 73 69 69 65 80 78 142 115 107 105 122 128 128 119 125 140 136 115 108 129 116 108 113 85 83 74 54 48 53 38
41 36 37 45 34 37 39 25 39 44 49 52 54 67 73 67 73 107 91 92 126 104 119 132 127 120 126 134 144 156 166 160 141 140 141 136 118 103 106 83 70 56 46
57 56 50 49 44 49 29 29 40 55 64 67 76 74 88 99 84 99 97 96 119 107 118 126 138 135 129 123 120 128 146 166 162 147 158 171 176 160 117 114 108 102 83
82 83 72 55 63 59 58 64 76 101 102 98 83 97 111 112 125 121 114 112 125 137 145 171 123 129 143 147 138 123 121 139 138 166 157 149 178 190 193 195 151 114 79
146 108 81 64 71 75 79 86 103 99 113 114 93 113 137 170 190 174 156 152 147 149 139 197 216 154 121 135 139 124 118 116 130 142 146 148 148 153 165 187 228 185 115
143 112 100 94 88 93 118 124 114 106 125 121 130 133 144 120 166 193 193 193 177 184 197 148 226 114 145 125 131 133 124 98 100 99 107 136 132 133 137 153 175 197 222
100 82 114 88 89 128 139 113 115 129 128 126 126 130 138 152 187 231 251 197 171 180 207 214 167 155 178 165 136 132 138 134 108 91 93 108 128 143 149 140 142 153 174
118 167 173 125 134 129 114 111 114 117 138 137 139 152 165 170 158 121 191 260 198 236 216 236 254 196 201 205 261 193 131 102 110 109 94 78 77 99 132 149 147 134 133
146 148 118 123 115 102 73 70 84 161 184 175 175 182 188 190 186 171 135 154 219 246 252 216 231 264 265 194 210 296 187 135 115 110 109 91 77 70 79 125 144 150 128
151 119 111 113 108 68 73 113 126 124 179 206 203 265 307 322 315 288 270 224 221 176 253 198 240 316 224 207 194 185 195 149 109 100 104 96 100 87 81 79 105 133 135
125 117 121 109 99 61 92 148 265 294 245 216 247 287 305 260 321 316 317 308 349 194 270 302 218 217 332 307 204 276 278 218 127 65 78 88 102 101 92 78 83 112 137
105 88 88 63 78 176 215 243 216 223 208 195 217 241 255 254 233 222 203 223 252 231 483 532 422 347 339 263 279 220 220 174 137 104 92 89 116 117 108 97 84 80 109
91 76 91 199 270 366 334 254 197 162 112 125 120 122 128 130 139 142 164 180 210 200 152 196 254 398 340 188 201 240 225 131 116 119 135 119 121 122 119 115 104 87 75
80 203 321 334 299 252 233 216 188 138 99 59 68 65 51 40 37 55 61 89 139 186 231 222 143 138 142 81 95 104 113 78 66 89 117 127 107 105 112 116 110 106 90
266 227 246 217 175 138 107 86 81 101 126 150 124 113 86 67 50 24 7 3 -2 36 80 103 140 124 119 152 143 111 95 109 99 60 50 62 86 86 93 93 97 94 98
207 176 129 120 103 80 67 54 42 39 46 63 73 57 54 67 93 96 76 70 47 11 17 60 63 62 66 80 91 116 118 92 77 43 44 52 53 79 92 91 89 97 111
107 110 79 57 76 90 76 79 83 94 96 80 85 98 77 63 68 63 67 70 81 74 87 54 54 76 78 86 104 115 112 94 98 84 52 46 32 48 102 106 106 124 134
72 55 87 106 110 127 111 137 122 119 124 104 88 74 63 57 58 64 75 80 80 83 96 80 59 72 77 88 88 96 100 100 97 87 94 74 57 54 82 114 116 123 130
108 59 48 86 102 123 112 99 126 119 83 69 65 61 58 60 65 72 73 82 82 86 78 78 74 73 77 63 79 87 85 91 92 85 69 78 86 54 42 52 94 93 91
116 97 97 100 106 102 112 188 143 99 68 64 65 64 67 92 112 80 91 86 87 92 92 85 79 76 97 112 94 92 102 115 125 158 149 156 168 166 130 63 70 101 89
121 104 89 92 94 88 221 185 135 106 81 73 75 71 72 75 51 43 21 25 57 78 84 100 88 74 73 86 77 72 81 84 77 80 73 80 95 92 98 118 142 192 225
90 84 83 91 102 93 215 159 120 93 86 74 71 71 65 58 67 69 113 82 57 51 72 69 60 58 57 54 60 66 68 74 70 77 80 69 82 79 85 77 78 93 101
86 87 90 114 107 98 171 140 112 77 84 72 76 70 65 55 54 54 44 40 38 39 43 72 69 54 54 60 70 68 69 66 64 70 80 73 76 79 81 87 70 58 70
87 89 109 115 95 82 128 127 88 95 94 78 65 68 54 34 24 35 43 30 30 25 26 39 42 -25 -20 -2 25 53 66 80 72 68 73 72 69 72 76 85 87 53 54
88 122 126 83 71 71 77 88 74 92 85 77 63 46 33 18 16 27 39 29 3 7 34 14 4 -2 -4 31 62 66 58 49 48 31 39 56 48 55 69 72 74 71 70

GFSMA_con_3kmhel_030.txt.gz
Helicity
76 61 57 44 38 34 37 62 84 66 63 76 99 106 98 74 66 78 131 113 121 89 93 83 75 70 69 82 91 92 90 101 97 78 88 73 41 34 62 43 35 51 24
93 65 77 64 46 62 80 84 78 48 45 68 69 84 124 134 85 57 105 159 124 127 107 92 98 105 96 93 105 104 94 102 116 107 98 105 96 93 66 68 57 59 39
105 87 74 87 73 83 82 69 69 91 89 91 107 121 141 166 162 93 92 170 164 136 120 128 124 115 113 110 108 126 143 148 136 124 124 123 125 133 141 102 67 82 64
100 99 93 97 98 109 107 100 105 86 94 113 129 131 132 158 184 182 141 161 168 189 160 145 126 114 119 124 117 108 110 126 124 148 164 159 172 181 145 114 112 86 76
201 196 160 148 135 131 110 92 92 96 108 111 123 135 144 174 195 199 220 206 200 149 274 177 151 147 133 111 113 119 121 112 110 128 142 149 158 166 179 188 166 145 138
235 194 123 113 80 124 139 137 129 132 141 144 131 128 135 138 151 200 230 251 287 244 197 283 272 228 161 126 112 115 116 127 114 108 106 121 134 144 156 178 186 197 207
192 164 146 203 228 192 209 200 172 149 153 158 143 144 146 133 144 163 196 279 285 305 317 307 358 298 245 149 129 116 128 118 111 108 96 107 110 115 118 145 177 186 193
251 195 168 187 203 184 162 148 147 159 161 140 151 132 161 120 113 122 149 210 248 284 342 367 373 328 306 241 193 130 118 107 112 100 91 94 109 122 124 115 122 163 182
228 198 247 220 189 173 158 141 114 114 139 134 136 147 146 161 126 144 160 165 140 175 282 228 317 374 351 324 231 198 176 152 108 98 97 84 79 82 106 120 125 131 157
236 282 223 205 194 163 153 109 93 110 138 152 156 262 300 259 151 104 120 157 96 122 192 294 336 213 249 392 357 329 201 175 157 129 111 90 63 57 78 102 124 140 134
239 211 186 145 126 102 91 139 223 205 200 212 226 188 176 175 174 217 159 119 183 108 149 269 181 237 419 277 335 294 281 209 159 156 161 144 113 70 47 57 98 123 144
158 137 126 112 141 221 220 196 226 229 216 224 214 209 203 139 121 149 173 136 92 133 149 112 242 167 195 327 344 358 232 192 203 166 134 150 135 120 103 79 62 90 127
92 94 116 193 185 187 204 229 232 240 210 174 123 116 124 127 112 95 106 119 72 31 38 29 55 176 352 349 280 368 258 222 210 178 152 177 149 135 135 127 102 89 92
145 267 192 167 191 207 207 196 167 158 141 119 90 61 79 75 86 87 83 84 89 74 61 49 76 35 236 396 454 302 300 201 192 195 131 73 122 149 146 138 135 113 94
200 221 153 147 163 163 142 112 110 120 115 127 140 158 91 91 90 88 63 52 29 35 74 86 71 87 49 243 149 309 234 135 93 85 96 68 103 132 134 135 135 131 119
176 147 141 135 134 131 94 74 80 72 80 90 113 84 89 103 97 119 108 108 87 47 63 96 71 53 86 93 135 263 238 163 65 61 64 58 64 75 96 121 113 111 117
163 138 140 128 77 68 62 74 94 107 81 104 120 109 108 97 111 105 96 96 102 106 111 78 61 56 47 56 71 87 133 139 119 64 63 54 57 71 83 93 91 96 93
137 155 142 111 96 89 85 103 140 140 127 164 146 124 116 112 108 81 74 73 74 69 70 47 52 60 39 49 48 55 64 80 103 108 79 65 65 77 79 85 91 92 88
145 138 106 100 82 49 73 141 124 144 230 174 122 92 85 79 77 75 72 77 79 81 82 65 43 54 50 39 43 51 66 82 90 94 90 56 60 39 35 52 74 109 102
118 134 134 125 119 115 113 143 180 159 140 104 61 79 78 81 82 88 109 85 73 78 79 80 69 69 65 54 74 77 97 92 101 100 86 125 142 119 113 89 78 68 83
173 146 118 119 112 104 165 158 156 126 91 73 58 66 79 76 71 87 95 95 85 94 91 74 62 71 91 85 87 73 78 71 78 84 92 96 76 87 120 71 65 51 43
146 144 136 118 121 141 186 170 137 85 72 68 55 66 83 74 78 109 70 97 125 106 94 77 43 29 19 23 29 37 32 45 45 57 49 36 61 48 52 69 81 50 34
163 149 125 121 156 163 165 142 113 61 64 66 95 98 83 84 83 83 74 64 23 18 36 56 47 47 53 59 56 58 63 72 72 73 78 70 80 73 76 73 64 59 62
156 137 115 169 145 111 129 128 76 75 78 94 108 83 80 61 53 58 59 57 61 60 52 57 75 76 76 71 56 63 64 59 58 73 102 74 89 82 89 93 55 54 57
135 126 150 147 111 87 78 95 115 108 96 90 85 84 71 61 50 63 43 23 21 26 23 20 33 30 17 20 41 67 63 82 67 58 107 91 104 95 97 101 119 70 58
123 155 130 108 78 97 99 94 95 125 125 96 70 59 40 47 63 73 39 7 -12 -8 -11 -12 -7 0 3 8 11 59 81 26 53 55 82 86 54 76 62 66 95 119 111

GFSMA_con_3kmhel_033.txt.gz
Helicity
105 105 91 79 59 57 53 64 73 68 60 47 66 76 91 102 96 98 90 68 89 71 42 35 44 43 36 39 60 75 73 79 84 84 77 61 62 63 54 52 18 56 38
128 109 90 73 64 75 76 81 80 71 76 75 71 64 74 105 138 131 130 118 90 86 72 45 45 48 45 44 50 62 70 75 83 95 99 97 92 79 69 47 15 18 35
153 122 116 121 118 113 100 91 81 82 78 83 85 87 102 109 152 171 152 169 162 124 117 98 70 62 61 54 48 53 62 71 75 88 97 102 115 123 116 102 58 36 15
151 149 148 109 103 133 136 147 114 101 109 96 93 78 107 133 147 175 198 211 217 203 142 116 115 103 84 63 60 55 53 62 78 101 117 113 125 138 113 96 108 112 71
240 172 135 143 162 140 142 138 148 149 141 118 95 91 123 129 121 137 167 198 214 250 262 178 152 128 114 95 76 63 56 51 54 73 99 120 128 119 143 154 143 111 105
198 224 212 215 162 155 164 172 189 168 150 112 100 112 118 124 118 119 139 157 188 242 314 303 258 222 164 136 91 77 70 62 57 65 74 95 112 126 134 144 151 168 143
284 228 218 191 195 190 182 169 134 122 132 122 126 124 138 128 130 125 113 114 135 173 217 337 381 358 304 187 130 82 67 68 62 67 78 76 90 107 121 129 131 146 164
292 303 315 307 289 234 186 152 125 118 108 103 109 113 112 88 87 112 116 101 100 110 112 120 240 373 388 340 265 138 89 72 65 61 72 76 72 74 94 106 118 127 150
289 314 335 297 244 188 158 133 100 121 95 72 150 136 125 120 121 72 117 101 112 73 122 113 144 158 280 336 311 208 166 126 98 65 64 65 76 73 73 88 102 125 139
237 228 209 184 157 128 128 132 158 116 107 100 80 181 149 137 80 47 118 164 167 161 174 119 126 176 231 244 237 261 242 200 184 142 76 79 94 108 104 91 97 114 128
177 149 123 82 95 99 104 108 122 135 132 128 127 107 120 118 148 161 81 82 59 69 65 37 74 56 133 129 246 224 203 223 226 186 151 107 96 103 114 120 119 116 115
111 118 79 48 47 71 96 104 124 144 131 144 147 137 129 99 118 103 111 110 83 1 51 47 26 35 65 148 194 381 450 323 191 172 172 142 143 125 123 108 97 99 110
77 54 30 62 60 84 129 160 153 141 150 140 118 85 80 89 72 62 57 59 50 20 -37 16 34 20 45 87 92 175 302 417 288 295 226 193 153 112 92 92 103 103 115
114 118 106 102 99 121 144 145 143 144 118 102 93 91 83 81 77 78 91 74 60 41 40 -1 31 26 9 29 144 305 178 320 310 317 337 171 143 200 85 79 92 93 95
132 119 80 65 56 101 134 128 136 132 95 87 48 67 90 95 86 17 45 108 135 116 43 40 35 44 53 2 0 96 300 356 253 335 350 288 137 148 77 47 58 91 80
106 114 111 136 139 128 114 103 113 86 97 87 100 121 130 141 109 109 87 90 112 105 86 59 87 85 78 66 5 10 16 196 417 252 220 272 206 68 46 55 82 91 84
162 164 158 130 111 106 99 124 121 123 116 114 154 145 108 97 80 71 90 83 78 84 100 55 64 32 36 42 48 50 56 -26 182 306 211 120 67 44 52 60 91 119 102
139 138 121 121 128 131 124 120 111 138 181 180 168 140 106 73 33 60 85 74 66 50 55 34 -5 6 3 -4 -9 1 41 40 4 28 25 69 84 78 62 99 108 106 125
108 91 101 94 98 86 79 103 141 154 151 119 98 80 53 33 47 71 85 91 96 73 64 34 -2 -25 -32 -7 -7 -28 -22 -4 37 42 58 47 34 31 36 32 46 65 73
87 85 92 100 104 102 146 141 134 119 102 84 54 42 40 43 73 94 99 101 97 101 74 50 27 -21 -39 -30 -1 -12 -2 30 77 130 140 146 175 153 103 58 55 80 77
157 141 143 123 128 181 153 121 99 67 30 21 20 21 31 56 85 111 129 117 92 80 68 70 54 27 4 4 8 -9 -17 -3 3 -5 17 39 42 53 81 96 71 52 50
191 189 160 171 202 137 113 97 63 34 30 30 24 36 57 72 95 130 115 79 85 75 56 40 20 11 30 22 41 45 19 -17 -50 -59 -33 -6 8 26 26 40 49 40 27
229 206 189 223 144 97 88 59 52 77 85 90 84 85 80 79 87 86 72 74 62 36 28 19 -17 -4 25 51 63 61 60 45 38 53 36 10 35 47 56 51 45 51 53
204 173 223 159 120 83 60 48 86 128 114 95 88 89 86 83 81 75 67 61 61 53 50 52 34 28 31 44 67 49 61 47 45 48 63 22 46 38 65 78 59 60 64
189 197 176 127 88 45 30 79 106 113 99 91 83 80 63 65 50 63 79 51 43 34 35 24 21 30 12 -7 9 47 61 47 35 58 109 101 77 75 86 98 99 74 75
214 215 128 100 42 28 72 91 145 115 112 101 87 63 37 31 24 45 27 -15 -36 -23 -36 -21 -15 -13 -15 -7 2 25 51 58 52 58 85 103 87 94 110 62 81 108 126

GFSMA_con_3kmhel_036.txt.gz
Helicity
144 118 93 79 73 72 64 60 59 60 55 48 40 37 43 54 67 93 106 78 68 54 38 30 19 16 13 15 30 45 53 56 55 56 61 46 35 34 44 36 51 29 23
158 155 142 118 99 91 93 88 94 93 82 72 52 56 54 69 76 84 114 115 94 98 77 52 46 36 20 18 32 41 44 49 51 55 62 62 54 48 46 35 45 54 28
168 177 146 106 122 113 119 123 118 128 116 102 92 99 89 77 58 58 87 131 144 118 101 94 78 70 53 34 31 27 39 46 49 53 58 72 80 81 67 59 48 52 49
163 146 136 159 160 167 150 147 134 137 140 130 110 101 96 94 90 77 74 98 150 166 136 109 92 83 80 59 40 31 27 33 54 56 61 68 73 78 86 89 100 88 70
200 198 210 194 188 198 190 152 130 120 109 104 96 92 79 88 96 104 104 97 88 130 184 150 121 125 99 86 68 51 38 27 21 43 59 70 59 85 83 91 79 90 84
305 328 316 307 251 222 200 165 130 141 129 116 96 101 103 95 88 87 93 100 119 102 121 161 198 167 145 110 99 88 68 40 34 24 39 55 71 83 86 100 109 105 110
372 342 305 306 282 244 198 159 112 104 83 82 80 77 75 97 131 142 131 143 140 144 154 137 115 149 153 89 114 81 69 54 35 26 13 36 56 71 80 96 111 112 103
254 269 275 260 245 209 178 137 107 75 57 92 71 71 87 91 121 138 115 126 100 95 146 193 175 153 129 131 124 97 84 64 42 39 33 32 52 68 76 84 94 114 119
197 197 192 167 143 107 108 100 105 116 114 105 124 106 104 125 76 35 102 88 76 68 55 55 119 160 153 147 140 131 108 119 95 64 68 72 36 53 78 97 104 109 116
138 123 103 63 36 47 105 123 129 110 95 104 103 175 139 154 88 67 82 111 126 103 61 48 78 111 152 141 145 165 143 163 117 107 86 90 60 67 74 90 111 135 142
135 112 89 80 84 86 75 74 75 96 94 92 96 122 147 142 159 143 86 49 84 71 89 121 106 105 127 130 112 104 185 149 150 87 134 157 73 61 70 77 98 128 155
121 102 72 42 44 43 40 50 74 94 96 102 126 128 132 107 138 131 149 148 117 64 133 114 78 52 51 111 163 240 159 19 156 314 307 247 117 22 71 100 119 119 134
117 83 57 47 18 -4 26 78 105 113 111 126 105 113 101 95 76 76 77 92 100 80 39 48 87 53 52 68 83 146 199 138 156 312 354 276 217 168 76 92 131 136 133
85 64 65 74 53 48 70 88 93 91 82 90 86 83 89 59 69 92 90 90 84 75 75 18 65 60 55 38 31 74 61 262 157 132 364 667 481 303 182 119 92 108 87
70 37 23 15 36 58 56 80 88 105 109 111 107 96 82 79 98 112 117 99 111 104 77 60 33 65 102 103 59 47 38 47 238 358 295 247 360 453 298 176 124 124 49
51 54 46 35 54 77 90 101 108 90 121 132 105 96 91 124 117 105 105 93 72 93 90 71 46 27 67 81 80 36 45 -6 1 143 338 257 266 336 222 150 119 17 25
74 67 48 104 119 121 108 104 84 66 85 123 151 158 146 123 91 73 49 73 69 100 102 58 32 -0 8 32 53 39 8 6 -10 24 136 316 241 228 296 293 130 79 67
102 63 89 106 134 146 164 127 124 136 133 139 129 110 92 88 72 60 61 49 81 106 126 92 56 35 16 12 -6 -3 33 39 16 -12 -31 76 152 244 307 316 212 148 78
121 84 76 98 116 160 178 154 137 126 114 102 79 64 52 48 55 67 77 90 100 105 140 125 72 30 -13 -14 -30 -19 8 28 60 115 124 78 80 64 58 136 211 121 96
181 148 110 128 178 178 182 168 143 112 70 45 31 35 45 56 73 86 96 113 111 103 103 93 62 31 24 1 -6 -0 -6 7 32 72 91 115 130 122 117 108 65 55 60
308 206 129 203 184 193 192 153 104 65 40 36 51 56 55 64 74 103 148 133 130 118 102 85 60 40 30 24 19 25 28 25 39 44 42 40 47 54 60 97 97 84 72
205 133 202 167 184 187 155 101 69 58 57 68 86 92 92 73 79 80 81 111 118 112 94 82 56 35 19 12 4 15 33 47 21 34 55 39 34 44 56 72 78 92 108
23 181 156 191 174 129 90 70 65 85 95 99 107 105 96 100 92 87 85 76 78 75 90 81 52 36 11 29 32 21 43 53 59 81 62 55 64 51 65 58 44 54 66
62 120 176 181 161 119 91 75 78 98 109 121 107 95 96 87 80 77 87 88 98 90 81 85 64 37 31 33 29 22 38 60 62 42 61 36 71 90 93 91 67 70 77
56 150 150 168 130 86 76 109 108 105 109 105 89 94 82 80 57 41 67 52 37 43 46 27 32 32 19 5 7 11 19 43 47 66 97 62 67 76 92 91 116 80 75
171 153 144 112 75 69 97 115 111 78 89 86 92 75 42 29 5 4 33 61 58 27 29 24 12 -2 -6 -15 2 15 38 38 67 56 73 70 88 82 73 92 128 158 133

GFSMA_con_3kmhel_039.txt.gz
Helicity
91 108 108 93 80 77 96 111 95 81 65 52 51 43 48 38 42 68 76 51 61 63 58 48 40 33 26 34 30 31 46 54 52 52 54 48 51 49 54 44 51 61 73
131 147 133 112 129 153 141 128 122 106 95 87 76 78 66 57 63 82 86 81 60 55 45 40 43 47 51 53 56 45 40 47 61 65 55 52 51 44 54 58 66 62 63
134 135 150 181 177 177 177 172 170 143 127 105 99 99 97 91 80 75 73 85 94 90 83 94 64 56 64 61 73 57 34 43 52 61 76 72 65 70 66 53 57 64 59
188 216 216 213 206 206 191 169 144 121 106 81 73 93 105 104 90 73 54 68 92 120 138 133 123 105 75 69 58 61 46 28 45 57 66 75 85 81 74 63 60 63 67
301 288 285 306 286 229 222 179 154 115 88 85 86 103 107 98 92 103 126 152 139 129 144 189 193 169 150 81 54 61 72 67 36 32 55 67 83 90 85 87 88 51 68
346 326 346 260 173 163 198 182 131 106 84 93 109 113 111 96 120 168 172 140 142 140 146 169 179 177 215 186 145 58 71 73 75 43 16 41 61 92 100 105 102 95 84
240 214 192 234 209 164 124 108 85 96 78 77 45 59 61 73 141 140 130 101 114 145 151 158 151 141 159 242 224 189 114 76 84 59 62 33 48 70 94 100 96 90 87
159 148 134 121 126 124 125 117 107 76 66 78 79 56 120 77 69 132 91 127 112 73 94 113 115 145 129 129 168 225 196 164 108 78 48 71 54 56 61 77 86 93 90
130 125 121 115 102 65 61 65 94 126 128 108 130 142 154 145 95 33 66 56 61 73 95 135 171 163 159 155 173 163 231 214 165 143 140 77 54 77 53 61 81 87 95
149 108 91 74 52 53 110 112 122 123 141 160 129 157 146 147 113 80 116 105 122 126 163 183 184 190 177 180 239 270 254 242 212 156 144 193 76 68 39 48 73 93 101
176 152 131 113 98 78 77 86 81 94 93 85 94 111 126 142 148 143 106 56 73 75 108 160 159 129 158 155 152 184 247 250 247 194 152 163 201 81 53 62 74 90 104
181 157 128 100 77 57 42 31 38 55 72 89 100 110 101 94 103 110 115 125 83 27 47 82 122 139 114 118 147 152 154 172 251 173 185 103 161 189 100 87 81 102 109
125 92 96 94 67 47 46 42 62 78 90 113 139 158 142 111 108 117 114 129 92 72 60 39 107 116 95 91 95 90 90 101 127 275 216 157 165 278 211 128 95 125 136
94 83 71 50 33 26 46 46 80 93 104 136 148 136 122 106 96 97 114 119 100 81 90 58 28 78 93 82 73 75 40 48 48 126 263 333 225 252 246 395 211 209 174
80 43 74 51 18 21 62 77 86 78 104 129 133 135 130 113 83 83 126 152 134 115 97 72 64 26 60 51 66 75 62 45 39 20 83 308 241 189 362 358 405 406 234
66 65 80 69 71 70 63 83 97 110 130 155 153 147 140 146 160 152 110 120 127 118 92 79 73 37 13 23 26 48 65 53 44 -0 -13 87 325 184 293 334 500 521 506
117 99 93 134 136 116 129 117 124 164 212 210 177 173 145 132 124 109 95 105 84 122 108 84 110 82 75 61 52 51 49 66 59 33 18 -19 104 242 158 186 168 244 379
173 156 128 161 151 181 151 120 167 169 172 166 143 119 98 93 90 92 104 109 120 124 138 110 98 120 101 71 36 34 29 49 75 78 109 17 -19 86 199 216 258 242 202
156 138 191 174 153 154 139 144 139 155 157 121 104 98 87 85 89 94 100 113 120 118 134 126 106 111 97 76 57 43 29 24 43 92 99 109 115 -1 70 114 144 197 258
148 120 169 180 129 119 138 149 170 146 110 101 92 90 93 93 95 97 102 115 117 122 126 128 111 104 101 79 86 46 36 26 26 54 74 75 88 99 71 65 49 104 152
145 299 189 62 76 155 169 161 157 115 106 102 97 99 102 102 83 108 125 108 104 105 103 95 88 93 116 105 77 55 37 23 23 43 71 63 72 92 123 142 106 56 20
234 174 168 165 112 130 149 148 109 107 104 103 103 105 118 108 119 113 99 86 96 108 96 94 82 86 86 108 83 55 36 30 9 32 53 96 113 76 76 95 113 126 131
137 81 64 134 96 116 125 100 105 126 122 119 114 116 128 143 123 129 99 82 93 82 93 87 67 68 74 97 88 63 49 50 49 59 46 72 86 76 83 80 68 79 96
106 75 127 137 132 127 119 128 163 142 120 109 112 122 127 127 114 88 86 78 69 64 66 83 85 68 61 61 79 62 50 37 33 35 48 52 93 102 110 98 79 72 75
96 144 131 132 131 109 112 124 128 100 92 89 79 101 104 102 55 31 62 92 88 73 45 25 26 4 15 20 23 53 49 34 33 30 80 69 91 103 107 120 110 61 64
161 154 147 138 112 106 106 117 110 96 87 71 93 94 87 61 34 40 73 56 56 44 39 33 -27 -23 -10 2 7 7 27 36 40 32 63 81 94 72 65 60 80 86 111